Satellite-Ground Cal/Val Site Overpasses Predictions

Prediction of Satellite NPP Overpassing Cal/Val Site: Antarctic Dome C

Ground Cal/Val Site Location: Latitude: -75.10, Longitude: 123.35; Satellite-Ground Site NADIR distance within 100 km.

Table of predicted overpasses for the next 14.0 days since TLE Epoch: 2/14/2025
Interval Starting Time Ending Time Minimum Distance Time Minimum Distance (km)
1 02/15/2025 14:49:33 02/15/2025 14:50:03 02/15/2025 14:49:48 9.87
2 02/17/2025 07:32:22 02/17/2025 07:32:51 02/17/2025 07:32:37 2.81
3 02/20/2025 14:55:48 02/20/2025 14:56:16 02/20/2025 14:56:02 26.16
4 02/21/2025 14:37:04 02/21/2025 14:37:20 02/21/2025 14:37:12 81.12
5 02/22/2025 07:38:37 02/22/2025 07:39:04 02/22/2025 07:38:51 36.44
6 02/23/2025 07:19:51 02/23/2025 07:20:10 02/23/2025 07:20:01 73.69
7 02/25/2025 15:02:05 02/25/2025 15:02:27 02/25/2025 15:02:16 62.64
8 02/26/2025 14:43:12 02/26/2025 14:43:38 02/26/2025 14:43:25 46.71
